TimeCDT,TemperatureF,Dew PointF,Humidity,Sea Level PressureIn,VisibilityMPH,Wind Direction,Wind SpeedMPH,Gust SpeedMPH,PrecipitationIn,Events,Conditions,WindDirDegrees,DateUTC
12:16 AM,17.6,15.8,93,29.74,1.5,ESE,10.4,17.3,0.01,Snow,Light Snow,120,2013-03-18 05:16:00
12:36 AM,17.6,15.8,93,29.70,0.8,ESE,10.4,18.4,0.01,Snow,Snow,120,2013-03-18 05:36:00
12:56 AM,19.4,15.8,86,29.70,0.8,SE,9.2,16.1,N/A,Snow,Snow,130,2013-03-18 05:56:00
1:16 AM,19.4,17.6,93,29.68,0.8,SE,10.4,17.3,N/A,Snow,Snow,130,2013-03-18 06:16:00
1:36 AM,19.4,17.6,93,29.69,0.5,SE,9.2,19.6,N/A,Snow,Snow,130,2013-03-18 06:36:00
1:56 AM,19.4,17.6,93,29.69,1.0,SE,10.4,-,N/A,Snow,Snow,140,2013-03-18 06:56:00
2:16 AM,19.4,17.6,93,29.69,1.2,SE,9.2,-,N/A,Snow,Light Snow,140,2013-03-18 07:16:00
2:36 AM,19.4,17.6,93,29.67,1.2,SE,9.2,-,N/A,Snow,Light Snow,140,2013-03-18 07:36:00
2:56 AM,19.4,17.6,93,29.65,1.0,SE,8.1,-,N/A,Snow,Snow,130,2013-03-18 07:56:00
3:16 AM,19.4,17.6,93,29.64,1.0,SE,10.4,16.1,N/A,Snow,Snow,130,2013-03-18 08:16:00
3:36 AM,21.2,17.6,86,29.62,1.5,SE,15.0,18.4,N/A,Snow,Light Snow,140,2013-03-18 08:36:00
3:56 AM,21.2,17.6,86,29.61,1.2,SE,11.5,16.1,N/A,Snow,Snow,130,2013-03-18 08:56:00
4:16 AM,21.2,19.4,93,29.59,1.2,SE,12.7,20.7,0.01,Snow,Light Snow,130,2013-03-18 09:16:00
4:36 AM,21.2,19.4,93,29.58,0.8,SE,13.8,24.2,0.02,Snow,Snow,130,2013-03-18 09:36:00
4:56 AM,21.2,19.4,93,29.57,0.8,SE,12.7,21.9,N/A,Snow,Snow,140,2013-03-18 09:56:00
5:16 AM,21.2,19.4,93,29.55,1.2,SE,12.7,16.1,0.01,Snow,Light Snow,140,2013-03-18 10:16:00
5:36 AM,21.2,19.4,93,29.54,2.0,SE,16.1,21.9,0.01,Snow,Light Snow,140,2013-03-18 10:36:00
5:56 AM,21.2,19.4,93,29.53,1.5,SE,11.5,20.7,N/A,Snow,Light Snow,130,2013-03-18 10:56:00
6:16 AM,21.2,19.4,93,29.52,7.0,SE,8.1,-,0.01,Snow,Light Snow,130,2013-03-18 11:16:00
6:36 AM,21.2,19.4,93,29.51,10.0,SE,11.5,18.4,0.01,,Overcast,140,2013-03-18 11:36:00
6:56 AM,21.2,19.4,93,29.49,10.0,SE,9.2,17.3,N/A,,Overcast,130,2013-03-18 11:56:00
7:16 AM,21.2,19.4,93,29.48,7.0,SE,12.7,18.4,0.01,Snow,Light Snow,130,2013-03-18 12:16:00
7:36 AM,23.0,19.4,86,29.47,7.0,SE,11.5,19.6,0.01,Snow,Light Snow,130,2013-03-18 12:36:00
7:56 AM,23.0,21.2,93,29.45,7.0,SE,12.7,18.4,N/A,,Overcast,130,2013-03-18 12:56:00
8:16 AM,23.0,21.2,93,29.44,7.0,SE,6.9,16.1,N/A,,Overcast,130,2013-03-18 13:16:00
8:35 AM,24.8,21.2,86,29.43,7.0,SE,6.9,17.3,N/A,,Overcast,130,2013-03-18 13:35:00
8:55 AM,24.8,21.2,86,29.43,3.0,SE,11.5,20.7,N/A,,Overcast,140,2013-03-18 13:55:00
9:16 AM,24.8,23.0,93,29.42,3.0,SSE,13.8,24.2,N/A,,Overcast,150,2013-03-18 14:16:00
9:36 AM,24.8,24.8,100,29.42,2.0,SSE,16.1,21.9,N/A,,Overcast,150,2013-03-18 14:36:00
9:55 AM,26.6,24.8,93,29.42,2.5,South,10.4,21.9,N/A,,Overcast,190,2013-03-18 14:55:00
10:15 AM,24.8,24.8,100,29.43,4.0,South,10.4,16.1,N/A,,Overcast,180,2013-03-18 15:15:00
10:36 AM,23.0,19.4,86,29.44,4.0,South,16.1,24.2,N/A,,Overcast,180,2013-03-18 15:36:00
10:55 AM,21.2,19.4,93,29.45,3.0,South,11.5,18.4,N/A,,Overcast,190,2013-03-18 15:55:00
11:15 AM,19.4,17.6,93,29.45,5.0,South,9.2,24.2,N/A,,Overcast,190,2013-03-18 16:15:00
11:36 AM,19.4,17.6,93,29.46,7.0,South,11.5,20.7,N/A,,Overcast,190,2013-03-18 16:36:00
11:56 AM,19.4,17.6,93,29.46,4.0,South,11.5,17.3,N/A,,Overcast,190,2013-03-18 16:56:00
12:16 PM,19.4,15.8,86,29.47,10.0,SSW,11.5,17.3,N/A,,Overcast,200,2013-03-18 17:16:00
12:36 PM,19.4,15.8,86,29.47,7.0,SSW,8.1,17.3,N/A,,Overcast,200,2013-03-18 17:36:00
12:56 PM,19.4,15.8,86,29.47,7.0,SSW,10.4,16.1,N/A,,Overcast,210,2013-03-18 17:56:00
1:16 PM,19.4,15.8,86,29.47,7.0,SSW,9.2,-,N/A,Snow,Light Snow,210,2013-03-18 18:16:00
1:36 PM,19.4,15.8,86,29.47,7.0,SSW,13.8,20.7,N/A,Snow,Light Snow,210,2013-03-18 18:36:00
1:56 PM,17.6,14.0,86,29.47,7.0,SW,11.5,18.4,N/A,Snow,Light Snow,220,2013-03-18 18:56:00
2:16 PM,17.6,14.0,86,29.47,4.0,SW,9.2,16.1,N/A,Snow,Light Snow,220,2013-03-18 19:16:00
2:36 PM,19.4,14.0,80,29.47,3.0,SW,9.2,-,N/A,Snow,Light Snow,220,2013-03-18 19:36:00
2:56 PM,19.4,15.8,86,29.47,3.0,WSW,12.7,-,N/A,Snow,Light Snow,240,2013-03-18 19:56:00
3:16 PM,21.2,15.8,80,29.48,3.0,SW,10.4,17.3,N/A,Snow,Light Snow,230,2013-03-18 20:16:00
3:36 PM,21.2,17.6,86,29.49,2.0,West,9.2,-,N/A,Snow,Light Snow,260,2013-03-18 20:36:00
3:56 PM,21.2,15.8,80,29.50,1.8,West,17.3,21.9,N/A,Snow,Light Snow,270,2013-03-18 20:56:00
4:16 PM,21.2,15.8,80,29.50,2.0,WNW,13.8,21.9,N/A,Snow,Light Snow,290,2013-03-18 21:16:00
4:35 PM,21.2,15.8,80,29.52,2.5,WNW,10.4,21.9,N/A,Snow,Light Snow,290,2013-03-18 21:35:00
4:55 PM,21.2,15.8,80,29.53,4.0,West,16.1,25.3,N/A,Snow,Light Snow,280,2013-03-18 21:55:00
5:15 PM,21.2,14.0,74,29.54,2.0,West,19.6,27.6,N/A,Snow,Light Snow,280,2013-03-18 22:15:00
5:36 PM,19.4,12.2,74,29.56,2.5,WNW,19.6,27.6,N/A,Snow,Light Snow,290,2013-03-18 22:36:00
5:55 PM,19.4,12.2,74,29.57,2.5,WNW,11.5,26.5,N/A,Snow,Light Snow,290,2013-03-18 22:55:00
6:15 PM,17.6,10.4,73,29.58,3.0,WNW,16.1,25.3,N/A,Snow,Light Snow,290,2013-03-18 23:15:00
6:36 PM,17.6,10.4,73,29.59,2.5,WNW,18.4,27.6,N/A,Snow,Light Snow,300,2013-03-18 23:36:00
6:56 PM,15.8,10.4,79,29.60,2.5,West,18.4,29.9,N/A,Snow,Light Snow,280,2013-03-18 23:56:00
7:16 PM,15.8,8.6,73,29.62,5.0,WNW,19.6,26.5,N/A,Snow,Light Snow,290,2013-03-19 00:16:00
7:37 PM,12.2,6.8,79,29.63,7.0,WNW,18.4,31.1,N/A,Snow,Light Snow,300,2013-03-19 00:37:00
7:56 PM,12.2,6.8,79,29.64,10.0,West,13.8,27.6,N/A,,Mostly Cloudy,280,2013-03-19 00:56:00
8:16 PM,10.4,5.0,79,29.66,10.0,WNW,16.1,25.3,N/A,,Scattered Clouds,290,2013-03-19 01:16:00
8:36 PM,10.4,5.0,79,29.66,10.0,WNW,17.3,26.5,N/A,Snow,Light Snow,290,2013-03-19 01:36:00
8:56 PM,10.4,5.0,79,29.67,10.0,West,13.8,25.3,N/A,Snow,Light Snow,280,2013-03-19 01:56:00
9:16 PM,10.4,3.2,73,29.68,10.0,West,13.8,19.6,N/A,Snow,Light Snow,280,2013-03-19 02:16:00
9:36 PM,8.6,3.2,79,29.69,7.0,WNW,12.7,26.5,N/A,Snow,Light Snow,290,2013-03-19 02:36:00
9:56 PM,8.6,3.2,79,29.70,10.0,WNW,18.4,26.5,N/A,Snow,Light Snow,290,2013-03-19 02:56:00
10:16 PM,8.6,3.2,79,29.71,10.0,WNW,16.1,27.6,N/A,,Clear,290,2013-03-19 03:16:00
10:36 PM,8.6,3.2,79,29.72,10.0,WNW,12.7,21.9,N/A,,Clear,290,2013-03-19 03:36:00
10:56 PM,6.8,1.4,79,29.72,10.0,WNW,13.8,21.9,N/A,,Clear,290,2013-03-19 03:56:00
11:16 PM,6.8,1.4,79,29.73,10.0,WNW,12.7,19.6,N/A,,Clear,300,2013-03-19 04:16:00
11:36 PM,6.8,1.4,79,29.73,10.0,WNW,16.1,24.2,N/A,,Clear,290,2013-03-19 04:36:00
11:56 PM,6.8,1.4,79,29.74,10.0,WNW,15.0,24.2,N/A,,Clear,290,2013-03-19 04:56:00